Pasco, WA
on Saturday, December 1, 2012

Saturday
Previous Day Next Day
Daily Summary
 ActualAverageRecord
Temperature
Mean Temperature °F 36°F  
Max Temperature 57°F 43°F 60°F (2013)
Min Temperature 44°F 29°F 12°F (2006)
Degree Days
Heating Degree Days 14 29  
Month to date heating degree days 14 29  
Since 1 July heating degree days 1111 1258  
Cooling Degree Days 0 0  
Month to date cooling degree days 0 0  
Year to date cooling degree days 788 710  
Moisture
Dew Point 40°F   
Average Humidity 68    
Maximum Humidity 92    
Minimum Humidity 43    
Precipitation
Precipitation 0.01 in in 0.73 in (1955)
Month to date precipitation 0.01  
Year to date precipitation 8.57  
Snow
Snow 0.00 in in in ()
Snow Depth 0.00 in   
Wind
Wind Speed 9 mph   
Max Wind Speed 28 mph   
Max Gust Speed 35 mph   
Visibility 10 miles   
Events Rain   

Key: T is trace of precipitation, MM is missing value
Source: NWS Daily Summary
Time(PST)TemperatureDew PointHumidity Pressure Visibility Wind DirectionWind SpeedGust SpeedPrecipitationEvents Conditions
12:53 AM 46.0°F 41.0°F 83% 29.53 in 10.0 miles Calm Calm - N/A   Partly Cloudy
1:53 AM 55.0°F 39.9°F 57% 29.52 in 10.0 miles SSE 16.1 mph - N/A   Partly Cloudy
2:53 AM 53.1°F 39.9°F 61% 29.52 in 10.0 miles SSE 10.4 mph - N/A   Partly Cloudy
4:53 AM 55.0°F 39.0°F 55% 29.58 in 10.0 miles SW 16.1 mph - N/A   Mostly Cloudy
5:53 AM 54.0°F 39.9°F 59% 29.58 in 10.0 miles SW 20.7 mph 29.9 mph N/A   Scattered Clouds
7:53 AM 50.0°F 39.0°F 66% 29.67 in 10.0 miles SW 12.7 mph - N/A   Scattered Clouds
8:53 AM 52.0°F 37.0°F 57% 29.72 in 10.0 miles SW 12.7 mph 23.0 mph N/A   Mostly Cloudy
9:53 AM 53.1°F 35.1°F 50% 29.75 in 10.0 miles WSW 13.8 mph 19.6 mph N/A   Overcast
11:53 AM 55.9°F 36.0°F 47% 29.75 in 10.0 miles SW 17.3 mph 23.0 mph N/A   Clear
12:53 PM 55.0°F 36.0°F 49% 29.73 in 10.0 miles SW 9.2 mph - N/A   Clear
1:53 PM 55.0°F 37.0°F 51% 29.73 in 10.0 miles Calm Calm - N/A   Partly Cloudy
2:53 PM 52.0°F 39.0°F 61% 29.70 in 10.0 miles SSE 5.8 mph - N/A   Clear
3:53 PM 50.0°F 39.0°F 66% 29.69 in 10.0 miles SSE 8.1 mph - N/A   Partly Cloudy
4:53 PM 48.0°F 39.9°F 74% 29.68 in 10.0 miles Calm Calm - N/A   Mostly Cloudy
5:53 PM 48.9°F 41.0°F 74% 29.67 in 10.0 miles SSE 3.5 mph - N/A   Overcast
6:53 PM 46.9°F 41.0°F 80% 29.64 in 10.0 miles East 5.8 mph - N/A   Overcast
7:53 PM 48.9°F 41.0°F 74% 29.61 in 10.0 miles East 10.4 mph - N/A   Overcast
8:53 PM 51.1°F 41.0°F 68% 29.58 in 10.0 miles ESE 6.9 mph - N/A   Overcast
9:53 PM 48.9°F 45.0°F 86% 29.57 in 10.0 miles SE 6.9 mph - 0.00 in Rain Light Rain
10:53 PM 48.0°F 45.0°F 89% 29.52 in 10.0 miles ESE 12.7 mph - 0.01 in Rain Light Rain
11:53 PM 46.9°F 45.0°F 93% 29.47 in 10.0 miles SE 6.9 mph - 0.00 in Rain Light Rain
Moon Phase
Dec. 01 Dec. 06 Dec. 13 Dec. 20 Dec. 28
Sunrise:07:19 AM (PST) Moon Rise:07:09 PM (PST)12/1
Sunset:04:11 PM (PST) Moon Set:09:33 AM (PST)12/1

Copyright © 2014 The Weather Underground, Inc.